Regional Weather Roundup
Issued by NWS

Home | Current Version | Previous Version | Text Only | Print | Product List | Glossary On
Versions: 1 2 3 4 5 6 7 8 9 10 11 12 13 14 15 16 17 18 19 20 21 22 23 24 25 26 27 28 29 30 31 32 33 34 35 36 37 38 39 40 41 42 43 44 45 46 47 48 49 50
000
ASUS44 KMEG 232110
RWRTN
TENNESSEE HOURLY STATE WEATHER ROUNDUP
NATIONAL WEATHER SERVICE MEMPHIS TN
300 PM CST MON JAN 23 2017

TNZ002-004-019-021-049-052-054-088>092-232200-
WEST TENNESSEE

CITY           SKY/WX    TMP DP  RH WIND       PRES   REMARKS
MEMPHIS INTL   PTSUNNY   49  38  65 NW12      29.81R
NWS MEMPHIS      N/A     50 N/A N/A MISG        N/A
JACKSON        CLOUDY    48  39  71 NW14      29.80R
DYERSBURG      CLOUDY    48  37  66 N9        29.80R
UNION CITY     CLOUDY    45  37  76 NW15      29.78R
PARIS          CLOUDY    45  36  70 CALM      29.76R
HUNTINGDON     CLOUDY    48  39  71 NW9G16    29.76R
$$

TNZ008-025-027-028-033-062-065-066-232200-
NORTH MIDDLE TENNESSEE

CITY           SKY/WX    TMP DP  RH WIND       PRES   REMARKS
NASHVILLE      CLOUDY    48  39  71 NW15G22   29.69R
PORTLAND       CLOUDY    45  41  87 NW10G17   29.67R
CLARKSVILLE    CLOUDY    45  36  70 NW14G23   29.72R
SMYRNA         CLOUDY    47  40  76 NW16      29.69R
GALLATIN       CLOUDY    46  41  81 NW13G22   29.70R
CROSSVILLE     CLOUDY    44  42  93 NW14G20   29.56R
$$

TNZ061-075-076-078-094-096-097-232200-
SOUTH MIDDLE TENNESSEE

CITY           SKY/WX    TMP DP  RH WIND       PRES   REMARKS
TULLAHOMA      CLOUDY    46  43  87 N10       29.65R
WINCHESTER     CLOUDY    46  43  87 NW7       29.63R
MCMINNVILLE    PTSUNNY   45  45 100 NW8         N/A
COLUMBIA       MOSUNNY   52  43  71 NW8       29.67R
SHELBYVILLE    CLOUDY    50  45  81 NW14      29.66R
$$

TNZ017-018-042-046-047-232200-
NORTHEAST TENNESSEE

CITY           SKY/WX    TMP DP  RH WIND       PRES   REMARKS
TRI CITIES     LGT RAIN  50  48  93 W6        29.38R FOG
ELIZABETHTON   DRIZZLE   50  48  93 W5        29.37S
$$

TNZ012-013-036-069-073-074-232200-
CENTRAL EAST TENNESSEE

CITY           SKY/WX    TMP DP  RH WIND       PRES   REMARKS
KNOXVILLE      CLOUDY    55  46  71 NW9G21    29.46R
OAK RIDGE      PTSUNNY   56  44  64 NW14G24   29.49R
GATLINBURG     CLOUDY    52  46  82 NW9       29.46R
MORRISTOWN     CLOUDY    52  48  87 NW14G22   29.43R
JACKSBORO      CLOUDY    50  46  87 VRB7G15   29.52R FOG
$$

TNZ083-085-099-232200-
SOUTHEAST TENNESSEE

CITY           SKY/WX    TMP DP  RH WIND       PRES   REMARKS
CHATTANOOGA    MOSUNNY   55  43  63 NW15G29   29.57R
$$

SKY/WX REPORTED AS FAIR MEANS FEW OR NO CLOUDS BELOW
12 THOUSAND FEET.




USA.gov is the U.S. government's official web portal to all federal, state and local government web resources and services.